Volver al catálogo

USA 40 R/B DEB

LostHEO
NORAD 23392·DEBRIS·🇺🇸 United States

Lanzado Aug 8, 1989 desde Cape Canaveral Space Force Station

Loading…

Próximos Pases (próximas 24 horas)

TLE

ObsoletoSource: Space-Track

Época: Nov 15, 2025, 01:09 UTC

1 23392U 89061BQ  25319.04827259  .00074194  00000-0  35349-1 0  9990
2 23392  56.9799  85.8501 2877273 172.6318 192.8543  9.21118802215010

Sigue USA 40 R/B DEB en tiempo real con AllMySat

Download on the App Store